TimeCST,TemperatureF,Dew PointF,Humidity,Sea Level PressureIn,VisibilityMPH,Wind Direction,Wind SpeedMPH,Gust SpeedMPH,PrecipitationIn,Events,Conditions,WindDirDegrees,DateUTC
12:44 AM,39.2,37.4,93,30.04,3.0,SSE,5.8,-,N/A,,Overcast,150,2012-11-06 06:44:00
12:53 AM,39.0,37.0,93,30.07,3.0,South,5.8,-,N/A,,Overcast,170,2012-11-06 06:53:00
1:53 AM,39.0,37.9,96,30.09,3.0,SSW,5.8,-,N/A,,Overcast,210,2012-11-06 07:53:00
2:53 AM,39.9,37.9,93,30.06,4.0,SSW,5.8,-,N/A,,Overcast,210,2012-11-06 08:53:00
3:53 AM,39.0,37.0,93,30.03,4.0,SSW,6.9,-,N/A,,Overcast,210,2012-11-06 09:53:00
4:05 AM,39.2,37.4,93,29.99,5.0,South,6.9,-,N/A,,Overcast,190,2012-11-06 10:05:00
4:30 AM,39.2,37.4,93,29.99,5.0,SSW,8.1,-,N/A,,Overcast,210,2012-11-06 10:30:00
4:53 AM,39.0,37.0,93,30.01,5.0,SSW,9.2,-,N/A,,Overcast,200,2012-11-06 10:53:00
5:10 AM,39.2,37.4,93,29.98,6.0,SSW,10.4,-,N/A,,Overcast,210,2012-11-06 11:10:00
5:23 AM,39.2,37.4,93,29.97,6.0,SSW,10.4,-,N/A,,Overcast,210,2012-11-06 11:23:00
5:53 AM,39.0,37.0,93,30.00,6.0,SW,11.5,-,N/A,,Overcast,220,2012-11-06 11:53:00
6:53 AM,39.9,37.0,89,29.97,5.0,SSW,13.8,-,N/A,,Overcast,210,2012-11-06 12:53:00
7:08 AM,39.2,37.4,93,29.94,5.0,SSW,13.8,-,0.00,,Overcast,210,2012-11-06 13:08:00
7:53 AM,39.9,37.9,93,29.98,4.0,SW,12.7,-,0.00,,Overcast,220,2012-11-06 13:53:00
8:33 AM,41.0,37.4,87,29.96,5.0,SW,13.8,-,N/A,,Overcast,230,2012-11-06 14:33:00
8:53 AM,41.0,37.9,89,29.98,6.0,SW,11.5,-,N/A,,Overcast,230,2012-11-06 14:53:00
9:53 AM,44.1,39.0,82,29.97,8.0,West,17.3,-,N/A,,Overcast,270,2012-11-06 15:53:00
10:21 AM,44.6,39.2,81,29.94,9.0,West,12.7,-,N/A,,Overcast,280,2012-11-06 16:21:00
10:53 AM,46.9,39.0,74,29.96,10.0,NW,21.9,28.8,N/A,,Overcast,310,2012-11-06 16:53:00
11:46 AM,50.0,39.2,66,29.94,10.0,NW,19.6,-,N/A,,Scattered Clouds,320,2012-11-06 17:46:00
11:53 AM,51.1,39.9,66,29.95,10.0,NW,15.0,-,N/A,,Partly Cloudy,310,2012-11-06 17:53:00
12:53 PM,53.1,35.1,50,29.93,10.0,NW,18.4,-,N/A,,Partly Cloudy,310,2012-11-06 18:53:00
1:53 PM,54.0,35.1,49,29.93,10.0,NW,19.6,32.2,N/A,,Partly Cloudy,320,2012-11-06 19:53:00
2:53 PM,52.0,34.0,50,29.95,10.0,NW,21.9,29.9,N/A,,Overcast,320,2012-11-06 20:53:00
3:53 PM,51.1,34.0,52,29.96,10.0,NW,15.0,23.0,N/A,,Overcast,320,2012-11-06 21:53:00
4:53 PM,50.0,33.1,52,29.97,10.0,NW,15.0,25.3,N/A,,Mostly Cloudy,310,2012-11-06 22:53:00
5:53 PM,48.0,34.0,58,29.99,10.0,NW,12.7,-,N/A,,Overcast,310,2012-11-06 23:53:00
6:53 PM,48.0,35.1,61,30.01,10.0,NW,9.2,-,N/A,,Overcast,310,2012-11-07 00:53:00
7:53 PM,48.0,35.1,61,30.02,10.0,NNW,12.7,20.7,N/A,,Overcast,330,2012-11-07 01:53:00
8:53 PM,48.0,34.0,58,30.02,10.0,NNW,10.4,19.6,N/A,,Overcast,330,2012-11-07 02:53:00
9:53 PM,46.9,34.0,61,30.02,10.0,NW,9.2,-,N/A,,Overcast,310,2012-11-07 03:53:00
10:53 PM,46.9,32.0,56,30.02,10.0,NNW,12.7,-,N/A,,Overcast,330,2012-11-07 04:53:00
11:53 PM,46.0,33.1,61,30.01,10.0,NW,10.4,-,N/A,,Overcast,320,2012-11-07 05:53:00